Home   Weather   Kingston upon Hull   Past weeks

Flag for United Kingdom Past Weather in Kingston upon Hull, England, United Kingdom — Yesterday and Last 2 Weeks

Now
45 °F

Fog.


Feels Like: 40 °F
Forecast: N/A
Wind: 9 mph from Southwest

Location: Humberside

Current Time: Dec 6, 2016 at 8:03:03 pm

Latest Report: Dec 6, 2016 at 7:20 pm


Visibility: 2 mi

Pressure: 30.27 "Hg

Humidity: 100%

Dew Point: 45 °F

Location of Kingston upon HullLocation

Past Weather in Kingston upon Hull — Graph

°F

Kingston upon Hull Temperature Yesterday

Maximum temperature yesterday: 41 °F (at 1:50 pm)
Minimum temperature yesterday: 27 °F (at 7:20 am)
Average temperature yesterday: 32 °F

High & Low Weather Summary for the Past Weeks

 TemperatureHumidityPressure
High52 °F (Nov 21, 6:20 pm)100% (Nov 22, 2:50 am)30.57 "Hg (Nov 22, 2:50 am)
Low27 °F (Dec 5, 7:20 am)58% (Nov 28, 12:50 pm)29.12 "Hg (Nov 21, 6:20 pm)
Average42 °F90%30.26 "Hg
* Reported Nov 21 6:20 pm — Dec 6 6:50 pm, Kingston upon Hull, Weather by CustomWeather, © 2016

Note: Actual official high and low records may vary slightly from our data, if they occured in-between our weather recording intervals... More about our weather records

Advertising

Kingston upon Hull Weather History for the Previous 24 Hours

Scroll right to see more
 ConditionsComfort  
Time TempWeatherWind HumidityBarometerVisibility
6:50 pm
Tue, Dec 6
45 °FFog.10 mph100%30.27 "Hg1 mi
5:50 pm45 °FFog.7 mph100%30.27 "Hg1 mi
5:20 pm45 °FFog.6 mph100%30.27 "Hg2 mi
4:50 pm43 °FFog.6 mph100%30.30 "Hg1 mi
4:20 pm43 °FFog.6 mph100%30.30 "Hg1 mi
3:50 pm43 °FFog.7 mph100%30.30 "Hg0 mi
3:20 pm43 °FFog.8 mph100%30.30 "Hg0 mi
2:50 pm41 °FFog.7 mph100%30.27 "Hg0 mi
2:20 pm41 °FFog.8 mph100%30.30 "Hg0 mi
1:50 pm39 °FFog.8 mph100%30.30 "Hg0 mi
1:20 pm41 °FFog.8 mph100%30.30 "Hg0 mi
12:50 pm43 °FFog.8 mph100%30.30 "Hg1 mi
12:20 pm41 °FFog.5 mph100%30.30 "Hg1 mi
11:50 am41 °FFog.No wind100%30.30 "Hg1 mi
11:20 am39 °FFog.6 mph100%30.33 "Hg1 mi
10:50 am37 °FFog.2 mph100%30.33 "Hg1 mi
10:20 am36 °FFog.No wind100%30.33 "Hg1 mi
9:50 am36 °FFog.2 mph100%30.33 "Hg0 mi
9:20 am34 °FFog.5 mph100%30.33 "Hg0 mi
8:50 am32 °FFog.3 mph100%30.33 "Hg0 mi
8:20 am32 °FIce fog.No wind100%30.33 "Hg0 mi
7:50 am30 °FIce fog.3 mph100%30.33 "Hg0 mi
7:20 am30 °FIce fog.2 mph100%30.30 "Hg1 mi
6:50 am28 °FIce fog.3 mph100%30.30 "Hg1 mi
6:20 am28 °FIce fog.No wind100%30.30 "Hg0 mi
5:50 am28 °FIce fog.No wind100%30.30 "Hg0 mi
5:20 am28 °FIce fog.No wind100%30.30 "Hg0 mi
4:50 am28 °FIce fog.No wind100%30.30 "Hg0 mi
4:20 am28 °FIce fog.No wind100%30.30 "Hg0 mi
3:50 am28 °FIce fog.No wind100%30.30 "Hg0 mi
3:20 am30 °FIce fog.2 mph100%30.30 "Hg0 mi
2:50 am30 °FIce fog.No wind100%30.30 "Hg0 mi
2:20 am30 °FIce fog.No wind100%30.30 "Hg0 mi
1:50 am32 °FIce fog.No wind100%30.33 "Hg0 mi
1:20 am30 °FIce fog.2 mph100%30.30 "Hg0 mi
12:50 am30 °FIce fog.No wind100%30.30 "Hg0 mi
12:20 am32 °FIce fog.2 mph100%30.30 "Hg1 mi
11:50 pm
Mon, Dec 5
32 °FIce fog.No wind100%30.30 "Hg2 mi
11:20 pm32 °FIce fog.No wind100%30.30 "Hg1 mi
10:50 pm32 °FIce fog.No wind100%30.30 "Hg2 mi
10:20 pm30 °FIce fog.No wind100%30.30 "Hg2 mi
9:50 pm32 °FIce fog.No wind100%30.30 "Hg1 mi
9:20 pm30 °FFog.No wind100%30.30 "Hg1 mi
8:50 pm32 °FIce fog.2 mph100%30.30 "Hg2 mi
8:20 pm32 °FIce fog.No wind100%30.30 "Hg2 mi
Weather by CustomWeather, © 2016

See weather overviewHow to use our weather pages